Time,TemperatureF,DewpointF,PressureIn,WindDirection,WindDirectionDegrees,WindSpeedMPH,WindSpeedGustMPH,Humidity,HourlyPrecipIn,Conditions,Clouds,dailyrainin,SoftwareType,DateUTC
2013-04-01 00:00:00,55.1,54.0,29.84,SW,224,0.0,0.0,96,0.01,OVC,,0.52,WeatherDisplay:10.37,2013-04-01 04:00:00,
2013-04-01 00:02:00,54.9,53.8,29.84,SW,224,0.0,0.0,96,0.01,RA,,0.00,WeatherDisplay:10.37,2013-04-01 04:02:00,
2013-04-01 00:07:00,55.0,54.4,29.84,SW,223,0.0,0.0,98,0.01,RA,,0.00,WeatherDisplay:10.37,2013-04-01 04:07:00,
2013-04-01 00:12:00,55.1,54.5,29.84,SW,224,0.0,0.0,98,0.00,OVC,,0.00,WeatherDisplay:10.37,2013-04-01 04:12:00,
2013-04-01 00:13:00,55.2,54.6,29.84,SW,224,0.0,0.0,98,0.00,OVC,,0.00,WeatherDisplay:10.37,2013-04-01 04:13:00,
2013-04-01 00:18:00,54.9,54.3,29.83,SW,224,0.0,0.0,98,0.00,OVC,,0.00,WeatherDisplay:10.37,2013-04-01 04:18:00,
2013-04-01 00:23:00,54.4,53.8,29.83,SW,223,0.0,0.0,98,0.00,OVC,,0.00,WeatherDisplay:10.37,2013-04-01 04:23:00,
2013-04-01 00:28:00,54.2,53.6,29.83,SW,223,0.0,0.0,98,0.00,OVC,,0.00,WeatherDisplay:10.37,2013-04-01 04:28:00,
2013-04-01 00:33:00,54.0,53.4,29.84,SW,223,0.0,0.0,98,0.00,OVC,,0.00,WeatherDisplay:10.37,2013-04-01 04:33:00,
2013-04-01 00:38:00,53.8,53.2,29.84,SW,224,3.5,3.5,98,0.00,OVC,,0.00,WeatherDisplay:10.37,2013-04-01 04:38:00,
2013-04-01 00:44:00,53.4,52.8,29.84,SW,224,2.3,2.3,98,0.00,OVC,,0.00,WeatherDisplay:10.37,2013-04-01 04:44:00,
2013-04-01 00:49:00,53.4,52.8,29.84,SW,223,2.3,2.3,98,0.00,OVC,,0.00,WeatherDisplay:10.37,2013-04-01 04:49:00,
2013-04-01 00:54:00,53.8,53.2,29.83,SW,224,0.0,0.0,98,0.00,OVC,,0.00,WeatherDisplay:10.37,2013-04-01 04:54:00,
2013-04-01 00:59:00,53.3,52.8,29.84,SW,224,3.5,3.5,98,0.01,RA,,0.01,WeatherDisplay:10.37,2013-04-01 04:59:00,
2013-04-01 01:04:00,53.0,52.5,29.84,SW,224,0.0,0.0,98,0.01,RA,,0.01,WeatherDisplay:10.37,2013-04-01 05:04:00,
2013-04-01 01:09:00,53.5,52.9,29.83,SW,223,0.0,0.0,98,0.01,OVC,,0.01,WeatherDisplay:10.37,2013-04-01 05:09:00,
2013-04-01 01:14:00,53.9,53.3,29.83,SW,223,2.3,2.3,98,0.01,OVC,,0.01,WeatherDisplay:10.37,2013-04-01 05:14:00,
2013-04-01 01:19:00,53.9,53.3,29.83,SW,223,0.0,0.0,98,0.01,OVC,,0.01,WeatherDisplay:10.37,2013-04-01 05:19:00,
2013-04-01 01:24:00,53.9,53.3,29.84,SW,223,0.0,0.0,98,0.01,OVC,,0.01,WeatherDisplay:10.37,2013-04-01 05:24:00,
2013-04-01 01:30:00,53.9,53.3,29.84,SW,223,2.3,0.0,98,0.01,OVC,,0.01,WeatherDisplay:10.37,2013-04-01 05:30:00,
2013-04-01 01:35:00,53.9,53.3,29.84,SW,222,2.3,2.3,98,0.01,OVC,,0.01,WeatherDisplay:10.37,2013-04-01 05:35:00,
2013-04-01 01:40:00,54.0,53.4,29.84,SW,222,2.3,2.3,98,0.01,OVC,,0.01,WeatherDisplay:10.37,2013-04-01 05:40:00,
2013-04-01 01:45:00,54.2,53.6,29.84,SW,222,4.0,4.0,98,0.01,OVC,,0.01,WeatherDisplay:10.37,2013-04-01 05:45:00,
2013-04-01 01:50:00,54.3,53.7,29.84,SW,222,2.3,2.3,98,0.01,OVC,,0.01,WeatherDisplay:10.37,2013-04-01 05:50:00,
2013-04-01 01:55:00,54.4,53.8,29.84,SW,222,2.3,2.3,98,0.00,OVC,,0.01,WeatherDisplay:10.37,2013-04-01 05:55:00,
2013-04-01 02:00:00,54.3,53.7,29.84,SW,222,1.1,0.0,98,0.00,OVC,,0.01,WeatherDisplay:10.37,2013-04-01 06:00:00,
2013-04-01 02:05:00,54.3,53.7,29.83,SW,222,0.0,0.0,98,0.00,OVC,,0.01,WeatherDisplay:10.37,2013-04-01 06:05:00,
2013-04-01 02:10:00,54.3,54.0,29.83,SW,222,0.0,0.0,99,0.00,OVC,,0.01,WeatherDisplay:10.37,2013-04-01 06:10:00,
2013-04-01 02:15:00,53.9,53.3,29.83,SW,222,2.3,2.3,98,0.00,OVC,,0.01,WeatherDisplay:10.37,2013-04-01 06:15:00,
2013-04-01 02:21:00,53.5,52.9,29.83,SW,222,0.0,0.0,98,0.00,OVC,,0.01,WeatherDisplay:10.37,2013-04-01 06:21:00,
2013-04-01 02:26:00,53.5,52.9,29.83,SW,222,0.0,0.0,98,0.00,OVC,,0.01,WeatherDisplay:10.37,2013-04-01 06:26:00,
2013-04-01 02:32:00,53.5,52.9,29.83,SW,222,0.0,0.0,98,0.00,OVC,,0.01,WeatherDisplay:10.37,2013-04-01 06:32:00,
2013-04-01 02:37:00,53.3,52.8,29.83,SW,222,2.3,2.3,98,0.00,OVC,,0.01,WeatherDisplay:10.37,2013-04-01 06:37:00,
2013-04-01 02:42:00,53.3,52.8,29.83,SW,222,2.3,2.3,98,0.00,OVC,,0.01,WeatherDisplay:10.37,2013-04-01 06:42:00,
2013-04-01 02:47:00,53.4,52.8,29.83,SW,222,0.0,0.0,98,0.00,OVC,,0.01,WeatherDisplay:10.37,2013-04-01 06:47:00,
2013-04-01 02:52:00,53.4,52.8,29.84,SW,222,3.5,3.5,98,0.00,OVC,,0.01,WeatherDisplay:10.37,2013-04-01 06:52:00,
2013-04-01 02:57:00,53.7,53.4,29.84,SW,222,3.5,3.5,99,0.00,OVC,,0.01,WeatherDisplay:10.37,2013-04-01 06:57:00,
2013-04-01 03:02:00,54.0,53.7,29.84,SW,222,2.0,2.0,99,0.00,-RA,,0.01,WeatherDisplay:10.37,2013-04-01 07:02:00,
2013-04-01 03:07:00,54.2,53.9,29.84,SW,222,2.0,2.0,99,0.00,-RA,,0.01,WeatherDisplay:10.37,2013-04-01 07:07:00,
2013-04-01 03:12:00,54.3,54.0,29.83,SW,222,3.5,3.5,99,0.01,-RA,,0.02,WeatherDisplay:10.37,2013-04-01 07:12:00,
2013-04-01 03:18:00,54.2,53.9,29.83,SW,222,3.5,3.5,99,0.01,-RA,,0.02,WeatherDisplay:10.37,2013-04-01 07:18:00,
2013-04-01 03:23:00,54.3,54.0,29.83,SW,222,3.0,3.0,99,0.01,-RA,,0.02,WeatherDisplay:10.37,2013-04-01 07:23:00,
2013-04-01 03:28:00,54.1,53.8,29.83,SW,222,2.3,2.3,99,0.01,-RA,,0.02,WeatherDisplay:10.37,2013-04-01 07:28:00,
2013-04-01 03:33:00,54.0,53.7,29.83,SW,222,3.5,3.5,99,0.02,-RA,,0.03,WeatherDisplay:10.37,2013-04-01 07:33:00,
2013-04-01 03:38:00,54.0,53.7,29.83,SW,222,0.0,0.0,99,0.02,-RA,,0.03,WeatherDisplay:10.37,2013-04-01 07:38:00,
2013-04-01 03:43:00,54.1,53.8,29.83,SW,222,0.0,0.0,99,0.02,-RA,,0.03,WeatherDisplay:10.37,2013-04-01 07:43:00,
2013-04-01 03:48:00,54.0,53.7,29.83,SW,222,0.0,0.0,99,0.02,-RA,,0.03,WeatherDisplay:10.37,2013-04-01 07:48:00,
2013-04-01 03:53:00,54.3,54.0,29.83,SW,222,3.5,3.5,99,0.02,-RA,,0.03,WeatherDisplay:10.37,2013-04-01 07:53:00,
2013-04-01 03:58:00,54.5,54.2,29.82,SW,222,0.0,0.0,99,0.02,-RA,,0.03,WeatherDisplay:10.37,2013-04-01 07:58:00,
2013-04-01 04:04:00,54.4,54.1,29.82,SW,222,0.0,0.0,99,0.02,-RA,,0.03,WeatherDisplay:10.37,2013-04-01 08:04:00,
2013-04-01 04:09:00,54.5,54.2,29.82,SW,222,0.0,0.0,99,0.01,-RA,,0.03,WeatherDisplay:10.37,2013-04-01 08:09:00,
2013-04-01 04:14:00,54.4,54.1,29.82,SW,222,0.0,0.0,99,0.01,-RA,,0.03,WeatherDisplay:10.37,2013-04-01 08:14:00,
2013-04-01 04:19:00,54.4,54.1,29.82,SW,222,0.0,0.0,99,0.02,-RA,,0.04,WeatherDisplay:10.37,2013-04-01 08:19:00,
2013-04-01 04:24:00,54.3,54.0,29.82,SW,222,0.0,0.0,99,0.02,-RA,,0.04,WeatherDisplay:10.37,2013-04-01 08:24:00,
2013-04-01 04:29:00,54.3,54.0,29.82,SW,222,1.1,0.0,99,0.01,-RA,,0.04,WeatherDisplay:10.37,2013-04-01 08:29:00,
2013-04-01 04:34:00,54.4,54.1,29.82,SW,222,3.5,3.5,99,0.01,-RA,,0.04,WeatherDisplay:10.37,2013-04-01 08:34:00,
2013-04-01 04:39:00,54.5,54.2,29.82,SW,222,1.1,1.1,99,0.01,-RA,,0.04,WeatherDisplay:10.37,2013-04-01 08:39:00,
2013-04-01 04:44:00,54.6,54.3,29.82,SW,222,0.0,0.0,99,0.01,-RA,,0.04,WeatherDisplay:10.37,2013-04-01 08:44:00,
2013-04-01 04:49:00,54.5,54.2,29.82,SW,222,0.0,0.0,99,0.01,-RA,,0.04,WeatherDisplay:10.37,2013-04-01 08:49:00,
2013-04-01 04:54:00,54.4,54.1,29.83,SW,222,0.0,0.0,99,0.01,-RA,,0.04,WeatherDisplay:10.37,2013-04-01 08:54:00,
2013-04-01 04:59:00,54.4,54.1,29.82,SW,222,0.0,0.0,99,0.01,-RA,,0.04,WeatherDisplay:10.37,2013-04-01 08:59:00,
2013-04-01 05:04:00,54.3,54.0,29.82,SW,222,0.0,0.0,99,0.01,OVC,,0.04,WeatherDisplay:10.37,2013-04-01 09:04:00,
2013-04-01 05:10:00,54.3,54.0,29.82,SW,222,0.0,0.0,99,0.01,OVC,,0.04,WeatherDisplay:10.37,2013-04-01 09:10:00,
2013-04-01 05:15:00,54.2,53.9,29.82,SW,222,0.0,0.0,99,0.01,OVC,,0.04,WeatherDisplay:10.37,2013-04-01 09:15:00,
2013-04-01 05:20:00,54.2,53.9,29.83,SW,222,1.1,1.1,99,0.00,OVC,,0.04,WeatherDisplay:10.37,2013-04-01 09:20:00,
2013-04-01 05:25:00,54.2,53.9,29.83,SW,222,0.0,0.0,99,0.00,OVC,,0.04,WeatherDisplay:10.37,2013-04-01 09:25:00,
2013-04-01 05:30:00,54.3,54.0,29.83,SW,222,0.0,0.0,99,0.00,OVC,,0.04,WeatherDisplay:10.37,2013-04-01 09:30:00,
2013-04-01 05:35:00,54.2,53.9,29.83,SW,222,0.0,0.0,99,0.00,OVC,,0.04,WeatherDisplay:10.37,2013-04-01 09:35:00,
2013-04-01 05:40:00,54.4,54.1,29.83,SW,222,0.0,0.0,99,0.00,OVC,,0.04,WeatherDisplay:10.37,2013-04-01 09:40:00,
2013-04-01 05:45:00,54.4,54.1,29.83,SW,222,0.0,0.0,99,0.00,OVC,,0.04,WeatherDisplay:10.37,2013-04-01 09:45:00,
2013-04-01 05:50:00,54.3,54.0,29.83,SW,222,0.0,0.0,99,0.00,OVC,,0.04,WeatherDisplay:10.37,2013-04-01 09:50:00,
2013-04-01 05:55:00,54.4,54.1,29.83,West,264,0.0,0.0,99,0.00,OVC,,0.04,WeatherDisplay:10.37,2013-04-01 09:55:00,
2013-04-01 06:00:00,54.3,54.0,29.84,West,264,0.0,0.0,99,0.00,OVC,,0.04,WeatherDisplay:10.37,2013-04-01 10:00:00,
2013-04-01 06:05:00,54.0,53.7,29.84,West,264,2.3,2.3,99,0.00,-RA,,0.04,WeatherDisplay:10.37,2013-04-01 10:05:00,
2013-04-01 06:10:00,53.8,53.5,29.84,West,264,0.0,0.0,99,0.00,-RA,,0.04,WeatherDisplay:10.37,2013-04-01 10:10:00,
2013-04-01 06:15:00,53.8,53.5,29.85,West,264,0.0,0.0,99,0.00,-RA,,0.04,WeatherDisplay:10.37,2013-04-01 10:15:00,
2013-04-01 06:20:00,53.6,53.3,29.85,West,264,3.5,0.0,99,0.00,-RA,,0.04,WeatherDisplay:10.37,2013-04-01 10:20:00,
2013-04-01 06:25:00,53.4,53.1,29.85,West,264,2.3,2.3,99,0.00,-RA,,0.04,WeatherDisplay:10.37,2013-04-01 10:25:00,
2013-04-01 06:30:00,53.5,53.2,29.85,West,264,0.0,0.0,99,0.00,-RA,,0.04,WeatherDisplay:10.37,2013-04-01 10:30:00,
2013-04-01 06:35:00,53.5,53.2,29.85,West,264,0.0,0.0,99,0.00,-RA,,0.04,WeatherDisplay:10.37,2013-04-01 10:35:00,
2013-04-01 06:41:00,53.4,53.1,29.85,West,264,1.1,0.0,99,0.00,-RA,,0.04,WeatherDisplay:10.37,2013-04-01 10:41:00,
2013-04-01 06:46:00,53.5,53.2,29.85,West,264,0.0,0.0,99,0.00,-RA,,0.04,WeatherDisplay:10.37,2013-04-01 10:46:00,
2013-04-01 06:51:00,53.1,52.8,29.85,West,264,0.0,0.0,99,0.00,-RA,,0.04,WeatherDisplay:10.37,2013-04-01 10:51:00,
2013-04-01 06:56:00,53.0,52.7,29.85,West,264,3.5,3.5,99,0.00,-RA,,0.04,WeatherDisplay:10.37,2013-04-01 10:56:00,
2013-04-01 07:02:00,52.7,52.4,29.86,West,264,0.0,0.0,99,0.00,BKN,,0.04,WeatherDisplay:10.37,2013-04-01 11:02:00,
2013-04-01 07:07:00,52.4,52.1,29.86,West,264,0.0,0.0,99,0.00,BKN,,0.04,WeatherDisplay:10.37,2013-04-01 11:07:00,
2013-04-01 07:12:00,52.3,52.0,29.86,West,264,0.0,0.0,99,0.00,BKN,,0.04,WeatherDisplay:10.37,2013-04-01 11:12:00,
2013-04-01 07:17:00,52.2,51.9,29.86,West,264,0.0,0.0,99,0.00,BKN,,0.04,WeatherDisplay:10.37,2013-04-01 11:17:00,
2013-04-01 07:22:00,52.0,51.7,29.87,West,264,0.0,0.0,99,0.00,BKN,,0.04,WeatherDisplay:10.37,2013-04-01 11:22:00,
2013-04-01 07:27:00,52.0,51.7,29.87,West,264,0.0,0.0,99,0.00,BKN,,0.04,WeatherDisplay:10.37,2013-04-01 11:27:00,
2013-04-01 07:32:00,51.6,51.3,29.87,West,264,0.0,0.0,99,0.00,BKN,,0.04,WeatherDisplay:10.37,2013-04-01 11:32:00,
2013-04-01 07:37:00,51.5,51.2,29.87,West,264,0.0,0.0,99,0.00,BKN,,0.04,WeatherDisplay:10.37,2013-04-01 11:37:00,
2013-04-01 07:42:00,51.4,51.1,29.88,West,264,0.0,0.0,99,0.00,BKN,,0.04,WeatherDisplay:10.37,2013-04-01 11:42:00,
2013-04-01 07:47:00,51.5,51.2,29.88,West,264,0.0,0.0,99,0.00,BKN,,0.04,WeatherDisplay:10.37,2013-04-01 11:47:00,
2013-04-01 07:52:00,51.5,51.2,29.88,West,264,0.0,0.0,99,0.00,BKN,,0.04,WeatherDisplay:10.37,2013-04-01 11:52:00,
2013-04-01 07:58:00,51.6,51.3,29.88,West,264,0.0,0.0,99,0.00,BKN,,0.04,WeatherDisplay:10.37,2013-04-01 11:58:00,
2013-04-01 08:03:00,51.8,51.5,29.88,West,264,0.0,0.0,99,0.00,BKN,,0.04,WeatherDisplay:10.37,2013-04-01 12:03:00,
2013-04-01 08:08:00,51.6,51.3,29.88,West,264,0.0,0.0,99,0.00,BKN,,0.04,WeatherDisplay:10.37,2013-04-01 12:08:00,
2013-04-01 08:13:00,51.6,51.3,29.88,West,264,0.0,0.0,99,0.00,BKN,,0.04,WeatherDisplay:10.37,2013-04-01 12:13:00,
2013-04-01 08:18:00,52.0,51.7,29.88,West,264,0.0,0.0,99,0.00,BKN,,0.04,WeatherDisplay:10.37,2013-04-01 12:18:00,
2013-04-01 08:23:00,52.5,52.2,29.88,West,264,0.0,0.0,99,0.00,BKN,,0.04,WeatherDisplay:10.37,2013-04-01 12:23:00,
2013-04-01 08:28:00,53.0,52.7,29.88,West,264,0.0,0.0,99,0.00,BKN,,0.04,WeatherDisplay:10.37,2013-04-01 12:28:00,
2013-04-01 08:33:00,53.0,52.7,29.88,West,264,0.0,0.0,99,0.00,BKN,,0.04,WeatherDisplay:10.37,2013-04-01 12:33:00,
2013-04-01 08:38:00,53.0,52.7,29.88,West,264,0.0,0.0,99,0.00,BKN,,0.04,WeatherDisplay:10.37,2013-04-01 12:38:00,
2013-04-01 08:43:00,53.2,52.9,29.88,West,264,0.0,0.0,99,0.00,BKN,,0.04,WeatherDisplay:10.37,2013-04-01 12:43:00,
2013-04-01 08:48:00,53.6,53.3,29.88,West,264,0.0,0.0,99,0.00,BKN,,0.04,WeatherDisplay:10.37,2013-04-01 12:48:00,
2013-04-01 08:53:00,53.6,53.3,29.88,West,264,0.0,0.0,99,0.00,BKN,,0.04,WeatherDisplay:10.37,2013-04-01 12:53:00,
2013-04-01 08:58:00,53.5,53.2,29.88,West,264,0.0,0.0,99,0.00,BKN,,0.04,WeatherDisplay:10.37,2013-04-01 12:58:00,
2013-04-01 09:04:00,53.9,53.6,29.88,West,264,0.0,0.0,99,0.00,BKN,,0.04,WeatherDisplay:10.37,2013-04-01 13:04:00,
2013-04-01 09:09:00,53.5,53.2,29.88,West,264,2.3,2.3,99,0.00,BKN,,0.04,WeatherDisplay:10.37,2013-04-01 13:09:00,
2013-04-01 09:14:00,53.5,53.2,29.88,West,271,3.5,3.5,99,0.00,BKN,,0.04,WeatherDisplay:10.37,2013-04-01 13:14:00,
2013-04-01 09:19:00,53.2,52.9,29.88,West,271,1.1,0.0,99,0.00,BKN,,0.04,WeatherDisplay:10.37,2013-04-01 13:19:00,
2013-04-01 09:24:00,54.0,53.7,29.88,West,271,0.0,0.0,99,0.00,BKN,,0.04,WeatherDisplay:10.37,2013-04-01 13:24:00,
2013-04-01 09:29:00,54.1,53.8,29.88,West,271,3.5,3.5,99,0.00,BKN,,0.04,WeatherDisplay:10.37,2013-04-01 13:29:00,
2013-04-01 09:34:00,54.6,54.3,29.87,NNE,19,0.0,0.0,99,0.00,BKN,,0.04,WeatherDisplay:10.37,2013-04-01 13:34:00,
2013-04-01 09:39:00,54.4,54.1,29.87,NNE,19,1.0,0.0,99,0.00,BKN,,0.04,WeatherDisplay:10.37,2013-04-01 13:39:00,
2013-04-01 09:44:00,54.6,54.3,29.87,West,268,4.6,4.6,99,0.00,BKN,,0.04,WeatherDisplay:10.37,2013-04-01 13:44:00,
2013-04-01 09:49:00,54.8,54.2,29.87,WNW,300,1.1,0.0,98,0.00,BKN,,0.04,WeatherDisplay:10.37,2013-04-01 13:49:00,
2013-04-01 09:54:00,56.1,55.0,29.87,WNW,301,1.0,1.0,96,0.00,BKN,,0.04,WeatherDisplay:10.37,2013-04-01 13:54:00,
2013-04-01 09:59:00,56.3,54.0,29.87,WNW,301,2.3,0.0,92,0.00,BKN,,0.04,WeatherDisplay:10.37,2013-04-01 13:59:00,
2013-04-01 10:04:00,56.2,52.7,29.87,WNW,291,3.5,3.5,88,0.00,BKN,,0.04,WeatherDisplay:10.37,2013-04-01 14:04:00,
2013-04-01 10:09:00,56.4,52.6,29.87,West,271,0.0,0.5,87,0.00,BKN,,0.04,WeatherDisplay:10.37,2013-04-01 14:09:00,
2013-04-01 10:14:00,57.4,52.9,29.87,West,281,0.0,0.0,85,0.00,BKN,,0.04,WeatherDisplay:10.37,2013-04-01 14:14:00,
2013-04-01 10:20:00,58.4,52.3,29.87,West,280,0.0,0.0,80,0.00,BKN,,0.04,WeatherDisplay:10.37,2013-04-01 14:20:00,
2013-04-01 10:25:00,59.1,50.5,29.87,West,271,6.9,6.9,73,0.00,BKN,,0.04,WeatherDisplay:10.37,2013-04-01 14:25:00,
2013-04-01 10:30:00,59.3,50.6,29.87,WSW,245,4.0,4.0,73,0.00,BKN,,0.04,WeatherDisplay:10.37,2013-04-01 14:30:00,
2013-04-01 10:35:00,58.8,49.4,29.87,West,262,4.0,4.0,71,0.00,BKN,,0.04,WeatherDisplay:10.37,2013-04-01 14:35:00,
2013-04-01 10:40:00,58.5,49.5,29.87,West,262,1.0,0.0,72,0.00,BKN,,0.04,WeatherDisplay:10.37,2013-04-01 14:40:00,
2013-04-01 10:45:00,58.5,48.4,29.87,WNW,299,0.0,0.1,69,0.00,BKN,,0.04,WeatherDisplay:10.37,2013-04-01 14:45:00,
2013-04-01 10:50:00,59.3,48.7,29.87,WNW,299,1.1,1.1,68,0.00,BKN,,0.04,WeatherDisplay:10.37,2013-04-01 14:50:00,
2013-04-01 10:55:00,59.4,49.2,29.87,WSW,253,5.0,5.0,69,0.00,BKN,,0.04,WeatherDisplay:10.37,2013-04-01 14:55:00,
2013-04-01 11:00:00,59.1,48.5,29.87,West,267,6.9,0.0,68,0.00,BKN,,0.04,WeatherDisplay:10.37,2013-04-01 15:00:00,
2013-04-01 11:05:00,59.6,48.6,29.87,West,280,3.5,3.5,67,0.00,SCT,,0.04,WeatherDisplay:10.37,2013-04-01 15:05:00,
2013-04-01 11:10:00,59.7,47.9,29.87,WSW,250,4.6,4.6,65,0.00,SCT,,0.04,WeatherDisplay:10.37,2013-04-01 15:10:00,
2013-04-01 11:15:00,60.3,50.5,29.87,NW,325,4.6,4.6,70,0.00,SCT,,0.04,WeatherDisplay:10.37,2013-04-01 15:15:00,
2013-04-01 11:20:00,60.9,47.8,29.87,SSW,213,5.8,5.8,62,0.00,SCT,,0.04,WeatherDisplay:10.37,2013-04-01 15:20:00,
2013-04-01 11:25:00,61.4,50.3,29.87,West,271,3.5,3.5,67,0.00,SCT,,0.04,WeatherDisplay:10.37,2013-04-01 15:25:00,
2013-04-01 11:30:00,61.4,49.1,29.87,WSW,251,8.1,8.1,64,0.00,SCT,,0.04,WeatherDisplay:10.37,2013-04-01 15:30:00,
2013-04-01 11:35:00,61.7,47.7,29.87,WSW,240,10.4,10.4,60,0.00,SCT,,0.04,WeatherDisplay:10.37,2013-04-01 15:35:00,
2013-04-01 11:40:00,61.8,47.8,29.87,West,263,3.5,3.5,60,0.00,SCT,,0.04,WeatherDisplay:10.37,2013-04-01 15:40:00,
2013-04-01 11:45:00,62.5,48.0,29.87,West,259,4.6,4.6,59,0.00,SCT,,0.04,WeatherDisplay:10.37,2013-04-01 15:45:00,
2013-04-01 11:50:00,63.5,51.5,29.87,West,275,4.0,4.0,65,0.00,SCT,,0.04,WeatherDisplay:10.37,2013-04-01 15:50:00,
2013-04-01 11:55:00,63.8,50.5,29.87,West,266,7.0,7.0,62,0.00,SCT,,0.04,WeatherDisplay:10.37,2013-04-01 15:55:00,
2013-04-01 12:00:00,63.8,51.0,29.86,SW,217,5.8,5.8,63,0.00,SCT,,0.04,WeatherDisplay:10.37,2013-04-01 16:00:00,
2013-04-01 12:05:00,64.0,48.5,29.86,SW,236,3.5,3.5,57,0.00,SCT,,0.04,WeatherDisplay:10.37,2013-04-01 16:05:00,
2013-04-01 12:10:00,63.8,48.7,29.86,West,262,7.0,7.0,58,0.00,SCT,,0.04,WeatherDisplay:10.37,2013-04-01 16:10:00,
2013-04-01 12:15:00,64.5,49.4,29.86,West,276,4.0,4.0,58,0.00,SCT,,0.04,WeatherDisplay:10.37,2013-04-01 16:15:00,
2013-04-01 12:20:00,66.1,49.9,29.86,West,268,5.8,5.8,56,0.00,SCT,,0.04,WeatherDisplay:10.37,2013-04-01 16:20:00,
2013-04-01 12:25:00,65.7,46.5,29.86,West,263,3.5,3.5,50,0.00,SCT,,0.04,WeatherDisplay:10.37,2013-04-01 16:25:00,
2013-04-01 12:30:00,66.2,48.0,29.86,South,182,10.4,10.4,52,0.00,SCT,,0.04,WeatherDisplay:10.37,2013-04-01 16:30:00,
2013-04-01 12:35:00,65.5,48.9,29.85,West,277,2.3,0.0,55,0.00,SCT,,0.04,WeatherDisplay:10.37,2013-04-01 16:35:00,
2013-04-01 12:41:00,66.6,49.4,29.85,SW,223,4.6,4.6,54,0.00,SCT,,0.04,WeatherDisplay:10.37,2013-04-01 16:41:00,
2013-04-01 12:46:00,66.5,46.2,29.85,SW,219,6.9,6.9,48,0.00,SCT,,0.04,WeatherDisplay:10.37,2013-04-01 16:46:00,
2013-04-01 12:51:00,66.9,47.6,29.85,NW,315,5.8,5.8,50,0.00,SCT,,0.04,WeatherDisplay:10.37,2013-04-01 16:51:00,
2013-04-01 12:56:00,67.6,49.9,29.85,WNW,288,9.2,9.2,53,0.00,SCT,,0.04,WeatherDisplay:10.37,2013-04-01 16:56:00,
2013-04-01 13:01:00,67.9,47.5,29.84,West,275,7.0,7.0,48,0.00,SCT,,0.04,WeatherDisplay:10.37,2013-04-01 17:01:00,
2013-04-01 13:07:00,67.7,47.3,29.84,WSW,238,6.0,6.0,48,0.00,SCT,,0.04,WeatherDisplay:10.37,2013-04-01 17:07:00,
2013-04-01 13:12:00,68.1,47.1,29.83,SW,221,11.5,11.5,47,0.00,SCT,,0.04,WeatherDisplay:10.37,2013-04-01 17:12:00,
2013-04-01 13:17:00,68.7,47.1,29.84,WSW,257,15.0,15.0,46,0.00,SCT,,0.04,WeatherDisplay:10.37,2013-04-01 17:17:00,
2013-04-01 13:22:00,68.7,45.3,29.84,WSW,252,13.8,13.8,43,0.00,SCT,,0.04,WeatherDisplay:10.37,2013-04-01 17:22:00,
2013-04-01 13:27:00,68.6,45.8,29.83,SSW,207,5.8,5.8,44,0.00,SCT,,0.04,WeatherDisplay:10.37,2013-04-01 17:27:00,
2013-04-01 13:32:00,68.6,45.2,29.83,West,272,12.7,12.7,43,0.00,SCT,,0.04,WeatherDisplay:10.37,2013-04-01 17:32:00,
2013-04-01 13:37:00,69.7,45.6,29.83,West,276,12.0,12.0,42,0.00,SCT,,0.04,WeatherDisplay:10.37,2013-04-01 17:37:00,
2013-04-01 13:42:00,69.0,47.4,29.83,SW,230,11.5,11.5,46,0.00,SCT,,0.04,WeatherDisplay:10.37,2013-04-01 17:42:00,
2013-04-01 13:47:00,69.1,46.9,29.83,West,267,4.0,4.0,45,0.00,SCT,,0.04,WeatherDisplay:10.37,2013-04-01 17:47:00,
2013-04-01 13:53:00,70.0,45.8,29.82,West,280,15.0,15.0,42,0.00,SCT,,0.04,WeatherDisplay:10.37,2013-04-01 17:53:00,
2013-04-01 13:58:00,70.5,46.3,29.82,WNW,296,5.0,5.0,42,0.00,SCT,,0.04,WeatherDisplay:10.37,2013-04-01 17:58:00,
2013-04-01 14:03:00,70.7,48.3,29.82,WNW,296,6.9,6.9,45,0.00,SCT,,0.04,WeatherDisplay:10.37,2013-04-01 18:03:00,
2013-04-01 14:08:00,71.7,48.0,29.82,WNW,299,6.9,6.9,43,0.00,SCT,,0.04,WeatherDisplay:10.37,2013-04-01 18:08:00,
2013-04-01 14:13:00,71.9,45.6,29.81,WSW,248,4.0,4.0,39,0.00,SCT,,0.04,WeatherDisplay:10.37,2013-04-01 18:13:00,
2013-04-01 14:18:00,71.5,46.6,29.82,WNW,297,9.2,9.2,41,0.00,SCT,,0.04,WeatherDisplay:10.37,2013-04-01 18:18:00,
2013-04-01 14:23:00,70.9,48.5,29.81,West,263,11.5,11.5,45,0.00,SCT,,0.04,WeatherDisplay:10.37,2013-04-01 18:23:00,
2013-04-01 14:28:00,70.8,45.3,29.81,WSW,246,4.6,4.6,40,0.00,SCT,,0.04,WeatherDisplay:10.37,2013-04-01 18:28:00,
2013-04-01 14:33:00,71.2,48.2,29.81,WNW,284,12.7,12.7,44,0.00,SCT,,0.04,WeatherDisplay:10.37,2013-04-01 18:33:00,
2013-04-01 14:38:00,71.5,46.6,29.81,NW,312,13.8,13.8,41,0.00,SCT,,0.04,WeatherDisplay:10.37,2013-04-01 18:38:00,
2013-04-01 14:43:00,71.7,46.1,29.80,West,281,5.0,5.0,40,0.00,SCT,,0.04,WeatherDisplay:10.37,2013-04-01 18:43:00,
2013-04-01 14:48:00,72.1,43.7,29.80,WNW,283,10.4,10.4,36,0.00,SCT,,0.04,WeatherDisplay:10.37,2013-04-01 18:48:00,
2013-04-01 14:53:00,72.1,46.4,29.80,WSW,240,16.1,16.1,40,0.00,SCT,,0.04,WeatherDisplay:10.37,2013-04-01 18:53:00,
2013-04-01 14:58:00,71.8,44.8,29.80,WNW,283,5.8,5.8,38,0.00,SCT,,0.04,WeatherDisplay:10.37,2013-04-01 18:58:00,
2013-04-01 15:03:00,72.9,45.1,29.80,NNW,331,11.0,11.0,37,0.00,SCT,,0.04,WeatherDisplay:10.37,2013-04-01 19:03:00,
2013-04-01 15:08:00,72.9,45.1,29.80,West,260,13.0,13.0,37,0.00,SCT,,0.04,WeatherDisplay:10.37,2013-04-01 19:08:00,
2013-04-01 15:13:00,73.1,45.3,29.80,SSE,162,11.5,11.5,37,0.00,SCT,,0.04,WeatherDisplay:10.37,2013-04-01 19:13:00,
2013-04-01 15:18:00,72.4,46.0,29.80,West,263,8.0,8.0,39,0.00,SCT,,0.04,WeatherDisplay:10.37,2013-04-01 19:18:00,
2013-04-01 15:23:00,73.4,46.2,29.79,WNW,294,11.5,11.5,38,0.00,SCT,,0.04,WeatherDisplay:10.37,2013-04-01 19:23:00,
2013-04-01 15:29:00,72.2,41.5,29.79,West,269,11.5,11.5,33,0.00,SCT,,0.04,WeatherDisplay:10.37,2013-04-01 19:29:00,
2013-04-01 15:34:00,71.0,44.1,29.80,WNW,292,6.9,6.9,38,0.00,SCT,,0.04,WeatherDisplay:10.37,2013-04-01 19:34:00,
2013-04-01 15:39:00,70.8,45.3,29.80,WSW,250,10.4,10.4,40,0.00,SCT,,0.04,WeatherDisplay:10.37,2013-04-01 19:39:00,
2013-04-01 15:44:00,71.2,42.9,29.80,West,272,11.5,11.5,36,0.00,SCT,,0.04,WeatherDisplay:10.37,2013-04-01 19:44:00,
2013-04-01 15:49:00,72.3,46.6,29.79,WNW,295,11.5,11.5,40,0.00,SCT,,0.04,WeatherDisplay:10.37,2013-04-01 19:49:00,
2013-04-01 15:54:00,72.1,44.4,29.79,WNW,298,4.0,4.0,37,0.00,SCT,,0.04,WeatherDisplay:10.37,2013-04-01 19:54:00,
2013-04-01 15:59:00,71.7,44.7,29.79,NW,306,12.0,12.0,38,0.00,SCT,,0.04,WeatherDisplay:10.37,2013-04-01 19:59:00,
2013-04-01 16:04:00,71.9,44.9,29.79,SW,227,6.0,6.0,38,0.00,SCT,,0.04,WeatherDisplay:10.37,2013-04-01 20:04:00,
2013-04-01 16:09:00,71.8,44.1,29.79,West,266,5.8,5.8,37,0.00,SCT,,0.04,WeatherDisplay:10.37,2013-04-01 20:09:00,
2013-04-01 16:14:00,70.8,42.5,29.79,WNW,300,5.8,5.8,36,0.00,SCT,,0.04,WeatherDisplay:10.37,2013-04-01 20:14:00,
2013-04-01 16:19:00,70.3,44.2,29.79,NW,305,4.6,4.6,39,0.00,SCT,,0.04,WeatherDisplay:10.37,2013-04-01 20:19:00,
2013-04-01 16:24:00,70.0,43.2,29.79,West,272,6.9,6.9,38,0.00,SCT,,0.04,WeatherDisplay:10.37,2013-04-01 20:24:00,
2013-04-01 16:29:00,69.8,43.0,29.79,WNW,296,12.7,12.7,38,0.00,SCT,,0.04,WeatherDisplay:10.37,2013-04-01 20:29:00,
2013-04-01 16:34:00,69.8,43.0,29.79,West,265,12.7,12.7,38,0.00,SCT,,0.04,WeatherDisplay:10.37,2013-04-01 20:34:00,
2013-04-01 16:40:00,69.8,43.0,29.79,West,268,15.0,15.0,38,0.00,SCT,,0.04,WeatherDisplay:10.37,2013-04-01 20:40:00,
2013-04-01 16:45:00,70.5,43.7,29.79,NW,308,9.0,9.0,38,0.00,SCT,,0.04,WeatherDisplay:10.37,2013-04-01 20:45:00,
2013-04-01 16:50:00,71.1,43.5,29.79,SW,230,10.4,10.4,37,0.00,SCT,,0.04,WeatherDisplay:10.37,2013-04-01 20:50:00,
2013-04-01 16:55:00,71.4,42.3,29.79,WSW,254,13.8,13.8,35,0.00,SCT,,0.04,WeatherDisplay:10.37,2013-04-01 20:55:00,
2013-04-01 17:00:00,72.0,42.8,29.79,West,281,17.3,17.3,35,0.00,SCT,,0.04,WeatherDisplay:10.37,2013-04-01 21:00:00,
2013-04-01 17:05:00,71.2,41.4,29.79,WSW,246,18.4,18.4,34,0.00,BKN,,0.04,WeatherDisplay:10.37,2013-04-01 21:05:00,
2013-04-01 17:10:00,70.7,43.1,29.79,West,274,11.5,11.5,37,0.00,BKN,,0.04,WeatherDisplay:10.37,2013-04-01 21:10:00,
2013-04-01 17:15:00,71.1,42.8,29.79,WSW,245,16.1,16.1,36,0.00,BKN,,0.04,WeatherDisplay:10.37,2013-04-01 21:15:00,
2013-04-01 17:20:00,70.3,40.6,29.80,WNW,283,19.6,19.6,34,0.00,BKN,,0.04,WeatherDisplay:10.37,2013-04-01 21:20:00,
2013-04-01 17:25:00,69.9,41.7,29.80,WNW,302,9.0,9.0,36,0.00,BKN,,0.04,WeatherDisplay:10.37,2013-04-01 21:25:00,
2013-04-01 17:30:00,69.6,42.2,29.80,NNW,346,10.4,10.4,37,0.00,BKN,,0.04,WeatherDisplay:10.37,2013-04-01 21:30:00,
2013-04-01 17:35:00,70.4,41.4,29.80,WNW,298,11.5,11.5,35,0.00,BKN,,0.04,WeatherDisplay:10.37,2013-04-01 21:35:00,
2013-04-01 17:40:00,69.9,40.2,29.81,NW,305,18.4,18.4,34,0.00,BKN,,0.04,WeatherDisplay:10.37,2013-04-01 21:40:00,
2013-04-01 17:45:00,69.6,42.2,29.81,WNW,303,14.0,14.0,37,0.00,BKN,,0.04,WeatherDisplay:10.37,2013-04-01 21:45:00,
2013-04-01 17:51:00,69.3,41.9,29.81,NW,312,5.8,5.8,37,0.00,BKN,,0.04,WeatherDisplay:10.37,2013-04-01 21:51:00,
2013-04-01 17:56:00,69.0,41.6,29.81,WNW,283,21.9,21.9,37,0.00,BKN,,0.04,WeatherDisplay:10.37,2013-04-01 21:56:00,
2013-04-01 18:02:00,68.3,41.0,29.82,NW,311,15.0,15.0,37,0.00,BKN,,0.04,WeatherDisplay:10.37,2013-04-01 22:02:00,
2013-04-01 18:07:00,67.9,42.0,29.82,NNW,341,6.9,6.9,39,0.00,BKN,,0.04,WeatherDisplay:10.37,2013-04-01 22:07:00,
2013-04-01 18:12:00,67.5,41.7,29.82,NNW,336,11.5,11.5,39,0.00,BKN,,0.04,WeatherDisplay:10.37,2013-04-01 22:12:00,
2013-04-01 18:17:00,67.3,42.8,29.82,NNW,342,10.4,10.4,41,0.00,BKN,,0.04,WeatherDisplay:10.37,2013-04-01 22:17:00,
2013-04-01 18:22:00,67.0,41.9,29.82,NNW,340,16.1,16.1,40,0.00,BKN,,0.04,WeatherDisplay:10.37,2013-04-01 22:22:00,
2013-04-01 18:27:00,66.8,41.7,29.83,WNW,292,11.5,11.5,40,0.00,BKN,,0.04,WeatherDisplay:10.37,2013-04-01 22:27:00,
2013-04-01 18:32:00,66.6,42.2,29.83,West,277,11.5,11.5,41,0.00,BKN,,0.04,WeatherDisplay:10.37,2013-04-01 22:32:00,
2013-04-01 18:37:00,66.4,42.0,29.83,WNW,294,10.0,10.0,41,0.00,BKN,,0.04,WeatherDisplay:10.37,2013-04-01 22:37:00,
2013-04-01 18:42:00,66.2,42.4,29.84,NW,309,3.5,0.0,42,0.00,BKN,,0.04,WeatherDisplay:10.37,2013-04-01 22:42:00,
2013-04-01 18:48:00,66.0,42.2,29.84,North,355,13.8,13.8,42,0.00,BKN,,0.04,WeatherDisplay:10.37,2013-04-01 22:48:00,
2013-04-01 18:53:00,65.5,43.6,29.84,WNW,295,4.6,4.6,45,0.00,BKN,,0.04,WeatherDisplay:10.37,2013-04-01 22:53:00,
2013-04-01 18:58:00,64.8,43.5,29.84,NW,322,7.0,7.0,46,0.00,BKN,,0.04,WeatherDisplay:10.37,2013-04-01 22:58:00,
2013-04-01 19:03:00,64.4,43.7,29.85,NW,304,5.8,5.8,47,0.00,SCT,,0.04,WeatherDisplay:10.37,2013-04-01 23:03:00,
2013-04-01 19:08:00,64.1,44.0,29.85,NW,304,1.1,0.0,48,0.00,SCT,,0.04,WeatherDisplay:10.37,2013-04-01 23:08:00,
2013-04-01 19:13:00,63.6,43.5,29.85,NW,309,12.7,12.7,48,0.00,SCT,,0.04,WeatherDisplay:10.37,2013-04-01 23:13:00,
2013-04-01 19:18:00,63.5,42.9,29.85,NNW,331,6.9,6.9,47,0.00,SCT,,0.04,WeatherDisplay:10.37,2013-04-01 23:18:00,
2013-04-01 19:23:00,63.4,42.8,29.85,WNW,299,5.0,5.0,47,0.00,SCT,,0.04,WeatherDisplay:10.37,2013-04-01 23:23:00,
2013-04-01 19:29:00,62.9,42.9,29.86,NW,307,5.8,5.8,48,0.00,SCT,,0.04,WeatherDisplay:10.37,2013-04-01 23:29:00,
2013-04-01 19:34:00,62.5,43.6,29.86,NW,326,6.9,6.9,50,0.00,SCT,,0.04,WeatherDisplay:10.37,2013-04-01 23:34:00,
2013-04-01 19:39:00,61.8,43.5,29.86,NNW,331,3.5,3.5,51,0.00,SCT,,0.04,WeatherDisplay:10.37,2013-04-01 23:39:00,
2013-04-01 19:44:00,61.1,43.3,29.86,NNW,342,6.9,6.9,52,0.00,SCT,,0.04,WeatherDisplay:10.37,2013-04-01 23:44:00,
2013-04-01 19:49:00,61.1,42.8,29.86,NW,311,5.8,5.8,51,0.00,SCT,,0.04,WeatherDisplay:10.37,2013-04-01 23:49:00,
2013-04-01 19:54:00,60.9,43.6,29.86,NW,312,3.5,3.5,53,0.00,SCT,,0.04,WeatherDisplay:10.37,2013-04-01 23:54:00,
2013-04-01 19:59:00,60.8,43.1,29.86,WNW,298,0.0,0.0,52,0.00,SCT,,0.04,WeatherDisplay:10.37,2013-04-01 23:59:00,
2013-04-01 20:04:00,60.6,42.9,29.86,NW,306,5.8,5.8,52,0.00,FEW,,0.04,WeatherDisplay:10.37,2013-04-02 00:04:00,
2013-04-01 20:09:00,60.2,43.5,29.86,NW,306,3.5,3.5,54,0.00,FEW,,0.04,WeatherDisplay:10.37,2013-04-02 00:09:00,
2013-04-01 20:14:00,60.2,43.0,29.86,NW,317,2.0,2.0,53,0.00,FEW,,0.04,WeatherDisplay:10.37,2013-04-02 00:14:00,
2013-04-01 20:20:00,59.7,43.0,29.87,WNW,302,4.6,4.6,54,0.00,FEW,,0.04,WeatherDisplay:10.37,2013-04-02 00:20:00,
2013-04-01 20:25:00,59.7,43.0,29.86,NW,307,6.9,6.9,54,0.00,FEW,,0.04,WeatherDisplay:10.37,2013-04-02 00:25:00,
2013-04-01 20:30:00,59.7,43.0,29.87,NNW,333,3.5,3.5,54,0.00,FEW,,0.04,WeatherDisplay:10.37,2013-04-02 00:30:00,
2013-04-01 20:35:00,59.1,42.9,29.87,NNW,331,1.1,0.0,55,0.00,FEW,,0.04,WeatherDisplay:10.37,2013-04-02 00:35:00,
2013-04-01 20:40:00,58.5,42.8,29.87,WNW,302,1.1,1.1,56,0.00,FEW,,0.04,WeatherDisplay:10.37,2013-04-02 00:40:00,
2013-04-01 20:45:00,58.3,43.1,29.87,WNW,302,4.0,4.0,57,0.00,FEW,,0.04,WeatherDisplay:10.37,2013-04-02 00:45:00,
2013-04-01 20:50:00,58.2,43.5,29.87,NW,304,4.0,4.0,58,0.00,FEW,,0.04,WeatherDisplay:10.37,2013-04-02 00:50:00,
2013-04-01 20:55:00,57.8,42.7,29.88,NW,304,3.5,3.5,57,0.00,FEW,,0.04,WeatherDisplay:10.37,2013-04-02 00:55:00,
2013-04-01 21:00:00,57.5,42.8,29.88,NW,304,1.1,0.0,58,0.00,FEW,,0.04,WeatherDisplay:10.37,2013-04-02 01:00:00,
2013-04-01 21:05:00,56.7,43.0,29.88,NW,304,0.0,0.0,60,0.00,SCT,,0.04,WeatherDisplay:10.37,2013-04-02 01:05:00,
2013-04-01 21:10:00,56.4,42.7,29.88,NW,307,4.0,4.0,60,0.00,SCT,,0.04,WeatherDisplay:10.37,2013-04-02 01:10:00,
2013-04-01 21:15:00,56.1,43.3,29.89,NW,306,0.0,0.0,62,0.00,SCT,,0.04,WeatherDisplay:10.37,2013-04-02 01:15:00,
2013-04-01 21:20:00,55.7,43.3,29.89,NW,314,3.5,3.5,63,0.00,SCT,,0.04,WeatherDisplay:10.37,2013-04-02 01:20:00,
2013-04-01 21:25:00,55.6,43.2,29.89,NW,314,3.5,3.5,63,0.00,SCT,,0.04,WeatherDisplay:10.37,2013-04-02 01:25:00,
2013-04-01 21:30:00,56.0,42.3,29.89,NNW,338,4.0,4.0,60,0.00,SCT,,0.04,WeatherDisplay:10.37,2013-04-02 01:30:00,
2013-04-01 21:35:00,55.8,43.0,29.90,NNW,338,1.1,0.0,62,0.00,SCT,,0.04,WeatherDisplay:10.37,2013-04-02 01:35:00,
2013-04-01 21:41:00,55.7,42.9,29.90,NNW,344,10.4,10.4,62,0.00,SCT,,0.04,WeatherDisplay:10.37,2013-04-02 01:41:00,
2013-04-01 21:46:00,55.8,41.7,29.91,NNW,344,1.1,1.1,59,0.00,SCT,,0.04,WeatherDisplay:10.37,2013-04-02 01:46:00,
2013-04-01 21:51:00,55.4,41.7,29.91,NNW,344,1.1,0.0,60,0.00,SCT,,0.04,WeatherDisplay:10.37,2013-04-02 01:51:00,
2013-04-01 21:56:00,55.0,41.4,29.91,NNW,348,1.1,0.0,60,0.00,SCT,,0.04,WeatherDisplay:10.37,2013-04-02 01:56:00,
2013-04-01 22:01:00,54.9,41.3,29.91,NNW,348,0.0,0.0,60,0.00,SCT,,0.04,WeatherDisplay:10.37,2013-04-02 02:01:00,
2013-04-01 22:06:00,54.5,41.7,29.91,NNW,348,2.3,0.0,62,0.00,SCT,,0.04,WeatherDisplay:10.37,2013-04-02 02:06:00,
2013-04-01 22:11:00,53.9,41.6,29.92,NNW,348,0.0,0.0,63,0.00,SCT,,0.04,WeatherDisplay:10.37,2013-04-02 02:11:00,
2013-04-01 22:17:00,53.8,41.5,29.92,NNW,348,0.0,0.0,63,0.00,SCT,,0.04,WeatherDisplay:10.37,2013-04-02 02:17:00,
2013-04-01 22:22:00,53.6,41.3,29.92,NW,304,4.0,4.0,63,0.00,SCT,,0.04,WeatherDisplay:10.37,2013-04-02 02:22:00,
2013-04-01 22:27:00,54.2,40.2,29.93,NW,311,3.5,3.5,59,0.00,SCT,,0.04,WeatherDisplay:10.37,2013-04-02 02:27:00,
2013-04-01 22:32:00,54.9,39.5,29.93,North,355,15.0,15.0,56,0.00,SCT,,0.04,WeatherDisplay:10.37,2013-04-02 02:32:00,
2013-04-01 22:37:00,55.0,39.1,29.93,North,355,10.4,10.4,55,0.00,SCT,,0.04,WeatherDisplay:10.37,2013-04-02 02:37:00,
2013-04-01 22:42:00,54.8,38.9,29.94,NNW,346,5.0,5.0,55,0.00,SCT,,0.04,WeatherDisplay:10.37,2013-04-02 02:42:00,
2013-04-01 22:47:00,54.4,39.0,29.94,North,350,5.0,5.0,56,0.00,SCT,,0.04,WeatherDisplay:10.37,2013-04-02 02:47:00,
2013-04-01 22:53:00,53.9,38.6,29.95,NNE,12,3.5,3.5,56,0.00,SCT,,0.04,WeatherDisplay:10.37,2013-04-02 02:53:00,
2013-04-01 22:58:00,53.7,38.4,29.95,North,351,13.0,13.0,56,0.00,SCT,,0.04,WeatherDisplay:10.37,2013-04-02 02:58:00,
2013-04-01 23:03:00,53.5,38.2,29.95,North,355,13.8,13.8,56,0.00,SCT,,0.04,WeatherDisplay:10.37,2013-04-02 03:03:00,
2013-04-01 23:08:00,53.0,37.7,29.95,NNW,348,15.0,15.0,56,0.00,SCT,,0.04,WeatherDisplay:10.37,2013-04-02 03:08:00,
2013-04-01 23:13:00,52.7,37.4,29.95,NNW,329,14.0,14.0,56,0.00,SCT,,0.04,WeatherDisplay:10.37,2013-04-02 03:13:00,
2013-04-01 23:18:00,52.3,37.1,29.96,NNW,342,9.0,9.0,56,0.00,SCT,,0.04,WeatherDisplay:10.37,2013-04-02 03:18:00,
2013-04-01 23:23:00,52.0,37.2,29.96,North,355,10.4,10.4,57,0.00,SCT,,0.04,WeatherDisplay:10.37,2013-04-02 03:23:00,
2013-04-01 23:28:00,51.6,36.9,29.97,NNE,13,5.0,5.0,57,0.00,SCT,,0.04,WeatherDisplay:10.37,2013-04-02 03:28:00,
2013-04-01 23:33:00,51.0,37.2,29.97,NNW,329,4.6,4.6,59,0.00,SCT,,0.04,WeatherDisplay:10.37,2013-04-02 03:33:00,
2013-04-01 23:38:00,50.6,37.2,29.97,NNW,342,5.8,5.8,60,0.00,SCT,,0.04,WeatherDisplay:10.37,2013-04-02 03:38:00,
2013-04-01 23:43:00,50.3,36.9,29.98,NNW,345,5.0,5.0,60,0.00,SCT,,0.04,WeatherDisplay:10.37,2013-04-02 03:43:00,
2013-04-01 23:48:00,49.8,36.5,29.99,NW,316,3.5,3.5,60,0.00,SCT,,0.04,WeatherDisplay:10.37,2013-04-02 03:48:00,
2013-04-01 23:53:00,49.5,35.8,29.99,NNW,330,9.2,9.2,59,0.00,SCT,,0.04,WeatherDisplay:10.37,2013-04-02 03:53:00,
2013-04-01 23:59:00,49.4,35.2,29.99,North,360,6.0,6.0,58,0.00,SCT,,0.04,WeatherDisplay:10.37,2013-04-02 03:59:00,